User: anonymous   Login
Location: Seasalter
(51.3333°N, 1.0167°E)
Time: 17:11:00
(UTC+00:00)
Language:

Cosmos 1782 - Orbit

View from above orbital plane
View from above orbital plane
View from above satellite
View from above satellite

Ground track
Ground track

The orbit data is extracted from the following two-line orbital elements,

1 16986U 86074A   24061.90340700  .00005431  00000-0  28695-3 0  9997
2 16986  82.5304 253.6005 0006705 286.8337  73.2160 15.15286488 18927
Epoch (UTC): 01 March 2024 21:40:54
Eccentricity: 0.0006705
inclination: 82.5304°
perigee height: 515 km
apogee height: 525 km
right ascension of ascending node: 253.6005°
argument of perigee: 286.8337°
revolutions per day: 15.15286488
mean anomaly at epoch: 73.2160°
orbit number at epoch: 1892

The dashed part of the orbit path shows where the satellite is in the earth's shadow,  

DLR